Time,TemperatureF,DewpointF,PressureIn,WindDirection,WindDirectionDegrees,WindSpeedMPH,WindSpeedGustMPH,Humidity,HourlyPrecipIn,Conditions,Clouds,dailyrainin,SolarRadiationWatts/m^2,SoftwareType,DateUTC
2013-12-18 00:12:00,18.0,7.0,-100.00,NW,322,3.0,12.0,62,-99.99,,,0.00,0.000000,,2013-12-18 06:12:00,
2013-12-18 00:42:00,18.0,7.0,-100.00,NW,322,3.0,12.0,62,-99.99,,,0.00,0.000000,,2013-12-18 06:42:00,
2013-12-18 00:53:00,18.0,7.0,-100.00,NW,322,3.0,12.0,62,-99.99,,,0.00,0.000000,,2013-12-18 06:53:00,
2013-12-18 01:02:00,18.0,7.0,-100.00,NW,322,3.0,12.0,62,-99.99,,,0.00,0.000000,,2013-12-18 07:02:00,
2013-12-18 01:12:00,17.0,9.0,-100.00,WNW,297,4.0,9.0,69,0.00,,,0.00,0.000000,,2013-12-18 07:12:00,
2013-12-18 01:42:00,17.0,9.0,-100.00,WNW,297,4.0,9.0,69,0.00,,,0.00,0.000000,,2013-12-18 07:42:00,
2013-12-18 01:53:00,17.0,9.0,-100.00,WNW,297,4.0,9.0,69,0.00,,,0.00,0.000000,,2013-12-18 07:53:00,
2013-12-18 02:02:00,17.0,9.0,-100.00,WNW,297,4.0,9.0,69,0.00,,,0.00,0.000000,,2013-12-18 08:02:00,
2013-12-18 02:42:00,16.0,5.0,-100.00,WNW,298,7.0,12.0,62,0.00,,,0.00,0.000000,,2013-12-18 08:42:00,
2013-12-18 02:52:00,16.0,5.0,-100.00,WNW,298,7.0,12.0,62,0.00,,,0.00,0.000000,,2013-12-18 08:52:00,
2013-12-18 03:03:00,16.0,5.0,-100.00,WNW,298,7.0,12.0,62,0.00,,,0.00,0.000000,,2013-12-18 09:03:00,
2013-12-18 03:11:00,16.0,5.0,-100.00,WNW,298,7.0,12.0,62,0.00,,,0.00,0.000000,,2013-12-18 09:11:00,
2013-12-18 03:12:00,15.0,4.0,-100.00,WNW,283,7.0,13.0,61,0.00,,,0.00,0.000000,,2013-12-18 09:12:00,
2013-12-18 03:43:00,15.0,4.0,-100.00,WNW,283,7.0,13.0,61,0.00,,,0.00,0.000000,,2013-12-18 09:43:00,
2013-12-18 03:53:00,15.0,4.0,-100.00,WNW,283,7.0,13.0,61,0.00,,,0.00,0.000000,,2013-12-18 09:53:00,
2013-12-18 04:03:00,15.0,4.0,-100.00,WNW,283,7.0,13.0,61,0.00,,,0.00,0.000000,,2013-12-18 10:03:00,
2013-12-18 04:12:00,14.0,4.0,-100.00,WNW,297,6.0,16.0,63,0.00,,,0.00,0.000000,,2013-12-18 10:12:00,
2013-12-18 04:42:00,14.0,4.0,-100.00,WNW,297,6.0,16.0,63,0.00,,,0.00,0.000000,,2013-12-18 10:42:00,
2013-12-18 04:52:00,14.0,4.0,-100.00,WNW,297,6.0,16.0,63,0.00,,,0.00,0.000000,,2013-12-18 10:52:00,
2013-12-18 05:03:00,14.0,4.0,-100.00,WNW,297,6.0,16.0,63,0.00,,,0.00,0.000000,,2013-12-18 11:03:00,
2013-12-18 05:42:00,14.0,3.0,-100.00,NW,309,3.0,13.0,60,0.00,,,0.00,0.000000,,2013-12-18 11:42:00,
2013-12-18 05:53:00,14.0,3.0,-100.00,NW,309,3.0,13.0,60,0.00,,,0.00,0.000000,,2013-12-18 11:53:00,
2013-12-18 06:02:00,14.0,3.0,-100.00,NW,309,3.0,13.0,60,0.00,,,0.00,0.000000,,2013-12-18 12:02:00,
2013-12-18 06:11:00,14.0,3.0,-100.00,NW,309,3.0,13.0,60,0.00,,,0.00,0.000000,,2013-12-18 12:11:00,
2013-12-18 06:12:00,13.0,3.0,-100.00,WNW,288,4.0,8.0,63,0.00,,,0.00,0.000000,,2013-12-18 12:12:00,
2013-12-18 06:42:00,13.0,3.0,-100.00,WNW,288,4.0,8.0,63,0.00,,,0.00,0.000000,,2013-12-18 12:42:00,
2013-12-18 06:52:00,13.0,3.0,-100.00,WNW,288,4.0,8.0,63,0.00,,,0.00,0.000000,,2013-12-18 12:52:00,
2013-12-18 07:01:00,13.0,3.0,-100.00,WNW,288,4.0,8.0,63,0.00,,,0.00,0.000000,,2013-12-18 13:01:00,
2013-12-18 07:42:00,11.0,3.0,-100.00,WSW,240,3.0,7.0,68,0.00,,,0.00,0.000000,,2013-12-18 13:42:00,
2013-12-18 07:52:00,11.0,3.0,-100.00,WSW,240,3.0,7.0,68,0.00,,,0.00,0.000000,,2013-12-18 13:52:00,
2013-12-18 08:02:00,11.0,3.0,-100.00,WSW,240,3.0,7.0,68,0.00,,,0.00,0.000000,,2013-12-18 14:02:00,
2013-12-18 08:11:00,11.0,3.0,-100.00,WSW,240,3.0,7.0,68,0.00,,,0.00,0.000000,,2013-12-18 14:11:00,
2013-12-18 08:42:00,11.0,3.0,-100.00,SW,220,3.0,4.0,69,0.00,,,-99.99,16.000000,,2013-12-18 14:42:00,
2013-12-18 08:52:00,11.0,3.0,-100.00,SW,220,3.0,4.0,69,0.00,,,-99.99,16.000000,,2013-12-18 14:52:00,
2013-12-18 09:02:00,11.0,3.0,-100.00,SW,220,3.0,4.0,69,0.00,,,-99.99,16.000000,,2013-12-18 15:02:00,
2013-12-18 09:11:00,11.0,3.0,-100.00,SW,220,3.0,4.0,69,0.00,,,-99.99,16.000000,,2013-12-18 15:11:00,
2013-12-18 09:12:00,15.0,3.0,-100.00,West,262,5.0,8.0,59,0.00,,,0.00,160.000000,,2013-12-18 15:12:00,
2013-12-18 09:44:00,15.0,3.0,-100.00,West,262,5.0,8.0,59,0.00,,,0.00,160.000000,,2013-12-18 15:44:00,
2013-12-18 09:53:00,15.0,3.0,-100.00,West,262,5.0,8.0,59,0.00,,,0.00,160.000000,,2013-12-18 15:53:00,
2013-12-18 10:04:00,15.0,3.0,-100.00,West,262,5.0,8.0,59,0.00,,,0.00,160.000000,,2013-12-18 16:04:00,
2013-12-18 10:12:00,15.0,3.0,-100.00,SW,234,6.0,12.0,57,0.00,,,0.00,192.000000,,2013-12-18 16:12:00,
2013-12-18 10:42:00,15.0,3.0,-100.00,SW,234,6.0,12.0,57,0.00,,,0.00,192.000000,,2013-12-18 16:42:00,
2013-12-18 10:53:00,15.0,3.0,-100.00,SW,234,6.0,12.0,57,0.00,,,0.00,192.000000,,2013-12-18 16:53:00,
2013-12-18 11:02:00,15.0,3.0,-100.00,SW,234,6.0,12.0,57,0.00,,,0.00,192.000000,,2013-12-18 17:02:00,
2013-12-18 11:12:00,16.0,3.0,-100.00,SW,236,6.0,11.0,57,0.00,,,0.00,142.000000,,2013-12-18 17:12:00,
2013-12-18 11:42:00,16.0,3.0,-100.00,SW,236,6.0,11.0,57,0.00,,,0.00,142.000000,,2013-12-18 17:42:00,
2013-12-18 11:52:00,16.0,3.0,-100.00,SW,236,6.0,11.0,57,0.00,,,0.00,142.000000,,2013-12-18 17:52:00,
2013-12-18 12:02:00,16.0,3.0,-100.00,SW,236,6.0,11.0,57,0.00,,,0.00,142.000000,,2013-12-18 18:02:00,
2013-12-18 12:42:00,16.0,3.0,-100.00,SW,218,6.0,11.0,57,0.00,,,0.00,100.000000,,2013-12-18 18:42:00,
2013-12-18 12:52:00,16.0,3.0,-100.00,SW,218,6.0,11.0,57,0.00,,,0.00,100.000000,,2013-12-18 18:52:00,
2013-12-18 13:02:00,16.0,3.0,-100.00,SW,218,6.0,11.0,57,0.00,,,0.00,100.000000,,2013-12-18 19:02:00,
2013-12-18 13:11:00,16.0,3.0,-100.00,SW,218,6.0,11.0,57,0.00,,,0.00,100.000000,,2013-12-18 19:11:00,
2013-12-18 13:12:00,17.0,4.0,-100.00,SSW,195,6.0,11.0,55,0.00,,,0.00,120.000000,,2013-12-18 19:12:00,
2013-12-18 13:42:00,17.0,4.0,-100.00,SSW,195,6.0,11.0,55,0.00,,,0.00,120.000000,,2013-12-18 19:42:00,
2013-12-18 13:52:00,17.0,4.0,-100.00,SSW,195,6.0,11.0,55,0.00,,,0.00,120.000000,,2013-12-18 19:52:00,
2013-12-18 14:02:00,17.0,4.0,-100.00,SSW,195,6.0,11.0,55,0.00,,,0.00,120.000000,,2013-12-18 20:02:00,
2013-12-18 14:42:00,18.0,4.0,-100.00,SE,146,6.0,9.0,53,0.00,,,0.00,135.000000,,2013-12-18 20:42:00,
2013-12-18 14:53:00,18.0,4.0,-100.00,SE,146,6.0,9.0,53,0.00,,,0.00,135.000000,,2013-12-18 20:53:00,
2013-12-18 15:02:00,18.0,4.0,-100.00,SE,146,6.0,9.0,53,0.00,,,0.00,135.000000,,2013-12-18 21:02:00,
2013-12-18 15:11:00,18.0,4.0,-100.00,SE,146,6.0,9.0,53,0.00,,,0.00,135.000000,,2013-12-18 21:11:00,
2013-12-18 15:12:00,18.0,5.0,-100.00,SE,135,6.0,12.0,55,0.00,,,0.00,93.000000,,2013-12-18 21:12:00,
2013-12-18 15:43:00,18.0,5.0,-100.00,SE,135,6.0,12.0,55,0.00,,,0.00,93.000000,,2013-12-18 21:43:00,
2013-12-18 15:53:00,18.0,5.0,-100.00,SE,135,6.0,12.0,55,0.00,,,0.00,93.000000,,2013-12-18 21:53:00,
2013-12-18 16:03:00,18.0,5.0,-100.00,SE,135,6.0,12.0,55,0.00,,,0.00,93.000000,,2013-12-18 22:03:00,
2013-12-18 16:12:00,16.0,7.0,-100.00,SSE,166,5.0,10.0,66,0.00,,,0.00,44.000000,,2013-12-18 22:12:00,
2013-12-18 16:43:00,16.0,7.0,-100.00,SSE,166,5.0,10.0,66,0.00,,,0.00,44.000000,,2013-12-18 22:43:00,
2013-12-18 16:53:00,16.0,7.0,-100.00,SSE,166,5.0,10.0,66,0.00,,,0.00,44.000000,,2013-12-18 22:53:00,
2013-12-18 17:02:00,16.0,7.0,-100.00,SSE,166,5.0,10.0,66,0.00,,,0.00,44.000000,,2013-12-18 23:02:00,
2013-12-18 17:42:00,12.0,4.0,-100.00,ESE,103,3.0,7.0,71,0.00,,,0.00,0.000000,,2013-12-18 23:42:00,
2013-12-18 17:53:00,12.0,4.0,-100.00,ESE,103,3.0,7.0,71,0.00,,,0.00,0.000000,,2013-12-18 23:53:00,
2013-12-18 18:02:00,12.0,4.0,-100.00,ESE,103,3.0,7.0,71,0.00,,,0.00,0.000000,,2013-12-19 00:02:00,
2013-12-18 18:11:00,12.0,4.0,-100.00,ESE,103,3.0,7.0,71,0.00,,,0.00,0.000000,,2013-12-19 00:11:00,
2013-12-18 18:42:00,9.0,2.0,-100.00,North,-999,0.0,4.0,74,0.00,,,0.00,0.000000,,2013-12-19 00:42:00,
2013-12-18 18:52:00,9.0,2.0,-100.00,North,-999,0.0,4.0,74,0.00,,,0.00,0.000000,,2013-12-19 00:52:00,
2013-12-18 19:01:00,9.0,2.0,-100.00,North,-999,0.0,4.0,74,0.00,,,0.00,0.000000,,2013-12-19 01:01:00,
2013-12-18 19:11:00,9.0,2.0,-100.00,North,-999,0.0,4.0,74,0.00,,,0.00,0.000000,,2013-12-19 01:11:00,
2013-12-18 19:42:00,10.0,4.0,-100.00,ENE,72,2.0,3.0,75,0.00,,,0.00,0.000000,,2013-12-19 01:42:00,
2013-12-18 19:52:00,10.0,4.0,-100.00,ENE,72,2.0,3.0,75,0.00,,,0.00,0.000000,,2013-12-19 01:52:00,
2013-12-18 20:01:00,10.0,4.0,-100.00,ENE,72,2.0,3.0,75,0.00,,,0.00,0.000000,,2013-12-19 02:01:00,
2013-12-18 20:11:00,10.0,4.0,-100.00,ENE,72,2.0,3.0,75,0.00,,,0.00,0.000000,,2013-12-19 02:11:00,
2013-12-18 20:12:00,7.0,2.0,-100.00,North,-999,0.0,3.0,78,0.00,,,0.00,0.000000,,2013-12-19 02:12:00,
2013-12-18 20:52:00,7.0,2.0,-100.00,North,-999,0.0,3.0,78,0.00,,,0.00,0.000000,,2013-12-19 02:52:00,
2013-12-18 21:02:00,7.0,2.0,-100.00,North,-999,0.0,3.0,78,0.00,,,0.00,0.000000,,2013-12-19 03:02:00,
2013-12-18 21:12:00,6.0,1.0,-100.00,NW,311,2.0,2.0,79,0.00,,,0.00,0.000000,,2013-12-19 03:12:00,
2013-12-18 21:43:00,6.0,1.0,-100.00,NW,311,2.0,2.0,79,0.00,,,0.00,0.000000,,2013-12-19 03:43:00,
2013-12-18 21:54:00,6.0,1.0,-100.00,NW,311,2.0,2.0,79,0.00,,,0.00,0.000000,,2013-12-19 03:54:00,
2013-12-18 22:03:00,6.0,1.0,-100.00,NW,311,2.0,2.0,79,0.00,,,0.00,0.000000,,2013-12-19 04:03:00,
2013-12-18 22:12:00,6.0,1.0,-100.00,WNW,292,1.0,2.0,81,0.00,,,0.00,0.000000,,2013-12-19 04:12:00,
2013-12-18 22:43:00,6.0,1.0,-100.00,WNW,292,1.0,2.0,81,0.00,,,0.00,0.000000,,2013-12-19 04:43:00,
2013-12-18 22:53:00,6.0,1.0,-100.00,WNW,292,1.0,2.0,81,0.00,,,0.00,0.000000,,2013-12-19 04:53:00,
2013-12-18 23:03:00,6.0,1.0,-100.00,WNW,292,1.0,2.0,81,0.00,,,0.00,0.000000,,2013-12-19 05:03:00,
2013-12-18 23:12:00,4.0,0.0,-100.00,NW,316,2.0,2.0,82,0.00,,,-99.99,0.000000,,2013-12-19 05:12:00,
2013-12-18 23:42:00,4.0,0.0,-100.00,NW,316,2.0,2.0,82,0.00,,,-99.99,0.000000,,2013-12-19 05:42:00,
2013-12-18 23:52:00,4.0,0.0,-100.00,NW,316,2.0,2.0,82,0.00,,,-99.99,0.000000,,2013-12-19 05:52:00,